Location: Liberec
(50.7830°N, 15.0500°E)
Time: 03:03:07
(UTC+01:00)

ISS - Pass Details

Date: 01 October 2020
Orbit: 417 x 420 km, 51.6° (Epoch: 25 October)

Event Time Altitude Azimuth Distance (km) Brightness Sun altitude
Rises 19:29:39 0° 283° (WNW) 2,369 2.3 -9.1°
Reaches altitude 10° 19:31:45 10° 282° (WNW) 1,504 0.7 -9.5°
Maximum altitude 19:35:08 83° 194° (SSW) 428 -3.7 -10.0°
Enters shadow 19:37:46 16° 108° (ESE) 1,205 -2.1 -10.4°
